WK1F-2 Weather Reports


time (UTC)temp
C
wind
direction
speed
KPH
gust
KPH
rain 1hr
cm
rain 24hr
cm
rain mn
cm
humidity
%
barometer
mb
20260507030002 23 182 12.9 16.1 0.00 0.00 0.00 66 1014.8
20260507025502 23 159 11.3 17.7 0.00 0.00 0.00 66 1014.7
20260507025002 23 125 8.0 14.5 0.00 0.00 0.00 66 1014.7
20260507024502 23 155 9.7 14.5 0.00 0.00 0.00 66 1014.7
20260507024002 23 182 9.7 17.7 0.00 0.00 0.00 65 1014.6
20260507023502 23 148 12.9 19.3 0.00 0.00 0.00 65 1014.7
20260507023002 23 189 8.0 19.3 0.00 0.00 0.00 65 1014.7
20260507022502 23 189 6.4 20.9 0.00 0.00 0.00 65 1014.7
20260507022001 23 201 8.0 16.1 0.00 0.00 0.00 64 1014.7
20260507021501 23 151 11.3 17.7 0.00 0.00 0.00 64 1014.7
20260507021001 23 169 11.3 20.9 0.00 0.00 0.00 64 1014.6
20260507020501 23 203 4.8 16.1 0.00 0.00 0.00 65 1014.6
20260507020001 23 168 11.3 22.5 0.00 0.00 0.00 65 1014.7
20260507015501 23 176 12.9 19.3 0.00 0.00 0.00 65 1014.7
20260507015001 23 124 11.3 14.5 0.00 0.00 0.00 66 1014.5
20260507014501 23 189 8.0 14.5 0.00 0.00 0.00 66 1014.6
20260507014001 24 149 4.8 17.7 0.00 0.00 0.00 65 1014.8
20260507013501 24 173 14.5 16.1 0.00 0.00 0.00 65 1014.7
20260507013001 24 163 9.7 16.1 0.00 0.00 0.00 65 1014.8
20260507012501 24 145 3.2 20.9 0.00 0.00 0.00 64 1014.7
20260507012001 24 122 11.3 22.5 0.00 0.00 0.00 64 1014.6
20260507011501 24 148 9.7 19.3 0.00 0.00 0.00 64 1014.5
20260507011001 24 158 9.7 24.1 0.00 0.00 0.00 64 1014.4
20260507010501 24 132 8.0 19.3 0.00 0.00 0.00 64 1014.5
20260507010001 24 162 11.3 19.3 0.00 0.00 0.00 64 1014.5
20260507005501 24 160 9.7 14.5 0.00 0.00 0.00 65 1014.4
20260507005001 24 144 8.0 16.1 0.00 0.00 0.00 66 1014.5
20260507004501 24 172 6.4 17.7 0.00 0.00 0.00 66 1014.6
20260507004001 24 153 9.7 16.1 0.00 0.00 0.00 65 1014.5
20260507003501 24 194 8.0 19.3 0.00 0.00 0.00 65 1014.5
20260507003001 24 153 4.8 20.9 0.00 0.00 0.00 65 1014.4
20260507002501 24 164 11.3 22.5 0.00 0.00 0.00 65 1014.2
20260507002001 24 177 16.1 25.7 0.00 0.00 0.00 66 1014.2
20260507001501 24 129 11.3 24.1 0.00 0.00 0.00 66 1014.2
20260507001001 25 142 17.7 27.4 0.00 0.00 0.00 67 1014.1
20260507000501 25 130 11.3 30.6 0.00 0.00 0.00 67 1014.1
20260507000002 25 149 19.3 25.7 0.00 0.00 0.00 67 1014.0
20260506235501 25 125 6.4 19.3 0.00 0.00 0.00 67 1014.0
20260506235001 25 160 12.9 20.9 0.00 0.00 0.00 68 1013.8
20260506234501 25 151 14.5 20.9 0.00 0.00 0.00 68 1013.8
20260506234001 25 159 9.7 16.1 0.00 0.00 0.00 68 1013.9
20260506233501 25 163 8.0 17.7 0.00 0.00 0.00 68 1013.9
20260506233001 25 120 9.7 22.5 0.00 0.00 0.00 68 1013.9
20260506232501 25 150 14.5 20.9 0.00 0.00 0.00 68 1013.8
20260506232001 25 134 11.3 22.5 0.00 0.00 0.00 68 1013.7
20260506231501 25 133 9.7 24.1 0.00 0.00 0.00 68 1013.7
20260506231001 25 190 11.3 25.7 0.00 0.00 0.00 67 1013.6
20260506230501 25 133 22.5 27.4 0.00 0.00 0.00 66 1013.6
20260506230000 25 135 12.9 30.6 0.00 0.00 0.00 65 1013.6
20260506225501 26 142 14.5 32.2 0.00 0.00 0.00 63 1013.6
20260506225000 26 184 11.3 27.4 0.00 0.00 0.00 62 1013.7
20260506224500 26 136 25.7 24.1 0.00 0.00 0.00 61 1013.7
20260506224000 26 162 12.9 29.0 0.00 0.00 0.00 61 1013.8
20260506223500 26 130 14.5 35.4 0.00 0.00 0.00 61 1013.8
20260506223000 26 96 12.9 29.0 0.00 0.00 0.00 61 1013.9
20260506222500 26 156 27.4 19.3 0.00 0.00 0.00 60 1013.9
20260506222000 26 97 17.7 30.6 0.00 0.00 0.00 61 1013.8
20260506221500 26 167 19.3 27.4 0.00 0.00 0.00 60 1013.8
20260506221001 26 146 16.1 24.1 0.00 0.00 0.00 61 1013.9
20260506220500 26 139 16.1 25.7 0.00 0.00 0.00 62 1013.9
20260506220000 26 159 11.3 25.7 0.00 0.00 0.00 62 1013.7
20260506215500 27 220 12.9 27.4 0.00 0.00 0.00 62 1013.6
20260506215000 26 145 14.5 25.7 0.00 0.00 0.00 62 1013.7
20260506214500 27 97 14.5 27.4 0.00 0.00 0.00 62 1013.7
20260506214000 27 86 12.9 29.0 0.00 0.00 0.00 63 1013.5
20260506213500 27 154 9.7 24.1 0.00 0.00 0.00 63 1013.5
20260506213100 27 162 11.3 24.1 0.00 0.00 0.00 63 1013.6
20260506212700 27 156 11.3 30.6 0.00 0.00 0.00 64 1013.6
20260506212300 27 110 9.7 32.2 0.00 0.00 0.00 64 1013.7
20260506211900 27 130 17.7 24.1 0.00 0.00 0.00 63 1013.7
20260506211700 27 83 9.7 24.1 0.00 0.00 0.00 63 1013.7
20260506211500 27 161 14.5 25.7 0.00 0.00 0.00 63 1013.6
20260506211300 27 86 19.3 25.7 0.00 0.00 0.00 63 1013.7
20260506211100 27 139 14.5 25.7 0.00 0.00 0.00 63 1013.7
20260506211000 27 122 16.1 29.0 0.00 0.00 0.00 63 1013.7
20260506210900 27 106 11.3 29.0 0.00 0.00 0.00 64 1013.8
20260506210800 27 110 9.7 29.0 0.00 0.00 0.00 64 1013.8
20260506210232 27 129 16.1 30.6 0.00 0.00 0.00 64 1013.9
20260506205731 27 88 16.1 24.1 0.00 0.00 0.00 62 1013.8
20260506205231 27 122 16.1 29.0 0.00 0.00 0.00 64 1013.8
20260506204731 27 105 9.7 30.6 0.00 0.00 0.00 64 1013.8
20260506204231 27 104 14.5 25.7 0.00 0.00 0.00 64 1013.9
20260506203731 27 103 19.3 30.6 0.00 0.00 0.00 64 1014.0
20260506203231 27 149 14.5 27.4 0.00 0.00 0.00 63 1014.0
20260506202731 27 163 14.5 30.6 0.00 0.00 0.00 62 1014.0
20260506202231 27 122 8.0 30.6 0.00 0.00 0.00 62 1014.1
20260506201731 27 134 25.7 29.0 0.00 0.00 0.00 62 1014.1
20260506201231 27 105 20.9 25.7 0.00 0.00 0.00 62 1014.1
20260506200731 27 153 12.9 27.4 0.00 0.00 0.00 62 1014.2
20260506200231 27 125 11.3 29.0 0.00 0.00 0.00 62 1014.3
20260506195731 27 142 20.9 30.6 0.00 0.00 0.00 60 1014.4
20260506195231 27 137 11.3 25.7 0.00 0.00 0.00 61 1014.4
20260506194731 27 134 20.9 22.5 0.00 0.00 0.00 60 1014.6
20260506194231 27 87 8.0 32.2 0.00 0.00 0.00 61 1014.5
20260506193731 27 175 17.7 25.7 0.00 0.00 0.00 60 1014.5
20260506193231 27 142 17.7 29.0 0.00 0.00 0.00 60 1014.6
20260506192731 27 94 19.3 29.0 0.00 0.00 0.00 60 1014.7
20260506192231 27 168 14.5 30.6 0.00 0.00 0.00 60 1014.8
20260506191731 27 84 17.7 29.0 0.00 0.00 0.00 59 1014.8
20260506191231 27 108 12.9 24.1 0.00 0.00 0.00 60 1014.9
20260506190731 27 151 17.7 32.2 0.00 0.00 0.00 59 1015.1
20260506190231 27 139 17.7 27.4 0.00 0.00 0.00 58 1015.1
20260506185731 27 156 11.3 29.0 0.00 0.00 0.00 59 1015.1
20260506185231 28 168 17.7 24.1 0.00 0.00 0.00 57 1015.1
20260506184731 28 76 17.7 25.7 0.00 0.00 0.00 58 1015.1
20260506184231 28 113 9.7 25.7 0.00 0.00 0.00 58 1015.2
20260506183731 28 127 12.9 24.1 0.00 0.00 0.00 57 1015.3
20260506183231 28 147 11.3 30.6 0.00 0.00 0.00 57 1015.4
20260506182731 28 117 20.9 24.1 0.00 0.00 0.00 55 1015.3
20260506182231 28 123 11.3 25.7 0.00 0.00 0.00 56 1015.4
20260506181731 28 91 16.1 22.5 0.00 0.00 0.00 55 1015.4
20260506181231 29 73 6.4 27.4 0.00 0.00 0.00 54 1015.5
20260506180731 30 90 11.3 19.3 0.00 0.00 0.00 52 1015.6
20260506180231 30 175 4.8 16.1 0.00 0.00 0.00 52 1015.6
20260506175731 30 46 6.4 8.0 0.00 0.00 0.00 46 1015.6
20260506175231 30 11 3.2 16.1 0.00 0.00 0.00 46 1015.7
20260506174731 29 184 9.7 20.9 0.00 0.00 0.00 47 1015.8
20260506174231 30 197 12.9 25.7 0.00 0.00 0.00 46 1015.9
20260506173731 30 264 4.8 16.1 0.00 0.00 0.00 45 1016.0
20260506173231 30 289 3.2 20.9 0.00 0.00 0.00 47 1016.0
20260506172731 29 278 4.8 19.3 0.00 0.00 0.00 47 1016.1
20260506172231 29 138 8.0 19.3 0.00 0.00 0.00 47 1016.1
20260506171730 29 207 6.4 25.7 0.00 0.00 0.00 47 1016.1
20260506171230 29 156 16.1 14.5 0.00 0.00 0.00 47 1016.3
20260506170730 29 316 1.6 14.5 0.00 0.00 0.00 47 1016.3
20260506170230 29 225 1.6 20.9 0.00 0.00 0.00 49 1016.3
20260506165730 29 240 11.3 17.7 0.00 0.00 0.00 48 1016.4
20260506165230 28 235 4.8 17.7 0.00 0.00 0.00 50 1016.5
20260506164730 28 207 8.0 19.3 0.00 0.00 0.00 49 1016.4
20260506164230 28 220 6.4 12.9 0.00 0.00 0.00 50 1016.5
20260506163730 28 176 9.7 17.7 0.00 0.00 0.00 51 1016.7
20260506163230 28 230 3.2 20.9 0.00 0.00 0.00 52 1016.8
20260506162730 28 194 12.9 24.1 0.00 0.00 0.00 51 1016.8
20260506162230 28 251 6.4 24.1 0.00 0.00 0.00 51 1016.9
20260506161730 28 214 14.5 25.7 0.00 0.00 0.00 51 1016.9
20260506161230 28 220 11.3 22.5 0.00 0.00 0.00 53 1016.9
20260506160730 27 127 12.9 27.4 0.00 0.00 0.00 52 1016.9
20260506160230 27 177 14.5 22.5 0.00 0.00 0.00 52 1016.9
20260506155730 27 224 8.0 24.1 0.00 0.00 0.00 54 1017.0
20260506155230 27 245 9.7 22.5 0.00 0.00 0.00 53 1017.0
20260506154730 27 187 3.2 22.5 0.00 0.00 0.00 54 1016.9
20260506154230 27 238 6.4 19.3 0.00 0.00 0.00 54 1016.9
20260506153730 27 223 8.0 25.7 0.00 0.00 0.00 54 1016.9
20260506153230 27 216 16.1 22.5 0.00 0.00 0.00 55 1016.9
20260506152730 26 280 9.7 25.7 0.00 0.00 0.00 54 1016.9
20260506152230 26 237 6.4 22.5 0.00 0.00 0.00 56 1016.8
20260506151730 26 197 16.1 27.4 0.00 0.00 0.00 55 1016.8
20260506151230 26 208 19.3 29.0 0.00 0.00 0.00 54 1016.8
20260506150730 26 225 9.7 24.1 0.00 0.00 0.00 56 1016.7
20260506150230 26 176 14.5 24.1 0.00 0.00 0.00 55 1016.8
20260506145730 26 225 12.9 25.7 0.00 0.00 0.00 56 1016.8
20260506145230 26 168 8.0 22.5 0.00 0.00 0.00 56 1016.7
20260506144730 26 188 4.8 19.3 0.00 0.00 0.00 58 1016.8
20260506144230 26 182 4.8 20.9 0.00 0.00 0.00 59 1016.8
20260506143730 26 199 11.3 24.1 0.00 0.00 0.00 60 1016.8
20260506143230 25 199 8.0 27.4 0.00 0.00 0.00 60 1016.7
20260506142730 25 195 16.1 20.9 0.00 0.00 0.00 60 1016.6
20260506142230 25 182 9.7 22.5 0.00 0.00 0.00 62 1016.7
20260506141730 25 187 17.7 20.9 0.00 0.00 0.00 61 1016.8
20260506141230 25 165 9.7 22.5 0.00 0.00 0.00 62 1016.6
20260506140730 25 160 11.3 19.3 0.00 0.00 0.00 62 1016.6
20260506140230 25 129 12.9 19.3 0.00 0.00 0.00 63 1016.6
20260506135730 25 171 16.1 22.5 0.00 0.00 0.00 64 1016.6
20260506135230 25 213 8.0 25.7 0.00 0.00 0.00 65 1016.7
20260506134730 24 180 11.3 24.1 0.00 0.00 0.00 66 1016.8
20260506134230 24 196 16.1 20.9 0.00 0.00 0.00 67 1016.7
20260506133730 24 239 3.2 19.3 0.00 0.00 0.00 70 1016.8
20260506133230 23 194 8.0 16.1 0.00 0.00 0.00 71 1016.6
20260506132729 23 223 14.5 17.7 0.00 0.00 0.00 73 1016.6
20260506132229 23 206 14.5 22.5 0.00 0.00 0.00 73 1016.7
20260506131729 23 161 17.7 19.3 0.00 0.00 0.00 73 1016.6
20260506131229 23 166 9.7 16.1 0.00 0.00 0.00 74 1016.5
20260506130729 22 210 9.7 17.7 0.00 0.00 0.00 75 1016.6
20260506130229 22 193 9.7 20.9 0.00 0.00 0.00 76 1016.6
20260506125729 22 209 12.9 19.3 0.00 0.00 0.00 77 1016.7
20260506125229 22 189 14.5 19.3 0.00 0.00 0.00 78 1016.7
20260506124729 21 219 11.3 17.7 0.00 0.00 0.00 79 1016.6
20260506124229 21 220 14.5 20.9 0.00 0.00 0.00 80 1016.6
20260506123729 21 181 12.9 17.7 0.00 0.00 0.00 81 1016.5
20260506123229 21 184 8.0 14.5 0.00 0.00 0.00 83 1016.5
20260506122729 20 199 9.7 14.5 0.00 0.00 0.00 85 1016.5
20260506122229 20 214 8.0 12.9 0.00 0.00 0.00 86 1016.5
20260506121729 20 196 8.0 12.9 0.00 0.00 0.00 87 1016.5
20260506121229 19 218 4.8 9.7 0.00 0.00 0.00 88 1016.4
20260506120729 18 198 3.2 9.7 0.00 0.00 0.00 89 1016.2
20260506120229 18 197 4.8 9.7 0.00 0.00 0.00 90 1016.3
20260506115729 18 139 3.2 8.0 0.00 0.00 0.00 91 1016.3
20260506115229 18 148 4.8 8.0 0.00 0.00 0.00 92 1016.2
20260506114729 17 213 4.8 8.0 0.00 0.00 0.00 92 1016.1
20260506114229 17 196 6.4 8.0 0.00 0.00 0.00 92 1016.1
20260506113729 17 189 6.4 11.3 0.00 0.00 0.00 92 1016.2
20260506113229 17 227 6.4 9.7 0.00 0.00 0.00 92 1016.0
20260506112729 16 205 4.8 9.7 0.00 0.00 0.00 92 1016.0
20260506112229 16 196 9.7 8.0 0.00 0.00 0.00 92 1016.0
20260506111729 16 203 4.8 8.0 0.00 0.00 0.00 92 1015.9
20260506111229 16 176 3.2 8.0 0.00 0.00 0.00 92 1015.7
20260506110729 16 171 3.2 9.7 0.00 0.00 0.00 92 1015.6
20260506110229 16 182 6.4 9.7 0.00 0.00 0.00 91 1015.6
20260506105729 16 161 4.8 8.0 0.00 0.00 0.00 91 1015.5
20260506105229 16 165 4.8 8.0 0.00 0.00 0.00 91 1015.5
20260506104729 16 158 4.8 6.4 0.00 0.00 0.00 91 1015.5
20260506104229 16 177 4.8 8.0 0.00 0.00 0.00 90 1015.6
20260506103729 16 196 4.8 6.4 0.00 0.00 0.00 90 1015.7
20260506103229 16 203 3.2 6.4 0.00 0.00 0.00 90 1015.6
20260506102729 16 202 4.8 6.4 0.00 0.00 0.00 90 1015.6
20260506102229 16 196 3.2 6.4 0.00 0.00 0.00 89 1015.5
20260506101729 16 188 3.2 6.4 0.00 0.00 0.00 89 1015.6
20260506101229 16 192 3.2 9.7 0.00 0.00 0.00 89 1015.6
20260506100729 16 184 3.2 8.0 0.00 0.00 0.00 89 1015.6
20260506100229 16 196 3.2 6.4 0.00 0.00 0.00 89 1015.6
20260506095729 16 203 4.8 6.4 0.00 0.00 0.00 89 1015.5
20260506095229 16 211 4.8 8.0 0.00 0.00 0.00 88 1015.6
20260506094729 16 197 4.8 8.0 0.00 0.00 0.00 88 1015.5
20260506094229 16 204 3.2 8.0 0.00 0.00 0.00 88 1015.5
20260506093729 16 211 4.8 9.7 0.00 0.00 0.00 88 1015.6
20260506093229 16 217 4.8 9.7 0.00 0.00 0.00 88 1015.4
20260506092729 16 218 6.4 9.7 0.00 0.00 0.00 88 1015.4
20260506092229 16 192 6.4 9.7 0.00 0.00 0.00 87 1015.3
20260506091728 16 197 8.0 9.7 0.00 0.00 0.00 87 1015.3
20260506091228 16 180 4.8 8.0 0.00 0.00 0.00 87 1015.2
20260506090728 16 177 6.4 9.7 0.00 0.00 0.00 87 1015.2
20260506090228 16 176 4.8 11.3 0.00 0.00 0.00 87 1015.1
20260506085728 17 190 6.4 8.0 0.00 0.00 0.00 86 1015.3
20260506085228 17 190 6.4 9.7 0.00 0.00 0.00 86 1015.3
20260506084728 17 190 4.8 6.4 0.00 0.00 0.00 86 1015.3
20260506084228 17 203 4.8 6.4 0.00 0.00 0.00 86 1015.4
20260506083728 17 197 4.8 8.0 0.00 0.00 0.00 85 1015.4
20260506083228 17 224 4.8 8.0 0.00 0.00 0.00 85 1015.4
20260506082728 17 196 4.8 8.0 0.00 0.00 0.00 85 1015.3
20260506082228 17 214 6.4 9.7 0.00 0.00 0.00 85 1015.2
20260506081728 17 189 4.8 9.7 0.00 0.00 0.00 85 1015.2
20260506081228 17 173 4.8 9.7 0.00 0.00 0.00 85 1015.3
20260506080728 17 201 8.0 11.3 0.00 0.00 0.00 85 1015.3
20260506080228 17 203 4.8 9.7 0.00 0.00 0.00 85 1015.3
20260506073228 17 160 4.8 9.7 0.00 0.00 0.00 86 1015.0
20260506072728 17 176 4.8 11.3 0.00 0.00 0.00 87 1014.9
20260506072228 17 183 6.4 11.3 0.00 0.00 0.00 87 1014.8
20260506071728 16 166 8.0 11.3 0.00 0.00 0.00 88 1014.8
20260506071228 16 194 4.8 9.7 0.00 0.00 0.00 88 1014.9
20260506070728 16 149 6.4 9.7 0.00 0.00 0.00 88 1015.1
20260506070228 16 193 8.0 9.7 0.00 0.00 0.00 88 1015.2
20260506062228 16 172 6.4 9.7 0.00 0.00 0.00 87 1015.6
20260506061728 16 173 6.4 8.0 0.00 0.00 0.00 87 1015.8
20260506061228 16 174 6.4 8.0 0.00 0.00 0.00 87 1015.9
20260506060728 16 179 4.8 8.0 0.00 0.00 0.00 87 1015.8
20260506060228 16 172 4.8 8.0 0.00 0.00 0.00 87 1015.9
20260506051227 16 185 6.4 8.0 0.00 0.00 0.00 84 1016.1
20260506050727 16 197 6.4 8.0 0.00 0.00 0.00 84 1016.1
20260506050227 16 195 6.4 8.0 0.00 0.00 0.00 84 1016.2
20260506044727 17 193 4.8 6.4 0.00 0.00 0.00 82 1016.3
20260506044227 17 178 3.2 6.4 0.00 0.00 0.00 82 1016.4
20260506043727 17 193 3.2 6.4 0.00 0.00 0.00 82 1016.3
20260506043227 17 174 6.4 8.0 0.00 0.00 0.00 81 1016.4
20260506042727 17 199 4.8 8.0 0.00 0.00 0.00 81 1016.3
20260506042227 17 202 6.4 8.0 0.00 0.00 0.00 80 1016.3
20260506041727 17 175 4.8 8.0 0.00 0.00 0.00 79 1016.2
20260506041227 17 188 4.8 6.4 0.00 0.00 0.00 79 1016.4
20260506040727 17 193 4.8 6.4 0.00 0.00 0.00 78 1016.3
20260506040227 18 184 4.8 6.4 0.00 0.00 0.00 78 1016.3
20260506035727 18 189 3.2 4.8 0.00 0.00 0.00 77 1016.4
20260506035227 18 191 4.8 6.4 0.00 0.00 0.00 76 1016.4
20260506034727 18 177 3.2 8.0 0.00 0.00 0.00 75 1016.4
20260506034227 18 156 4.8 8.0 0.00 0.00 0.00 74 1016.4
20260506033727 18 165 3.2 8.0 0.00 0.00 0.00 74 1016.5
20260506033227 19 175 4.8 6.4 0.00 0.00 0.00 73 1016.5
20260506032727 19 190 3.2 6.4 0.00 0.00 0.00 73 1016.5
20260506032227 19 181 4.8 8.0 0.00 0.00 0.00 72 1016.5
20260506031727 19 183 1.6 6.4 0.00 0.00 0.00 71 1016.5
20260506031227 20 194 4.8 8.0 0.00 0.00 0.00 70 1016.4
20260506030727 20 199 6.4 8.0 0.00 0.00 0.00 69 1016.4
20260506030227 20 168 6.4 9.7 0.00 0.00 0.00 69 1016.3